| time (UTC) | temp C | wind direction | speed KPH | gust KPH | rain 1hr cm | rain 24hr cm | rain mn cm | humidity % | barometer mb |
| 20260506032014 | 8 | 48 | 3.2 | 12.9 | 0.00 | 0.00 | 0.00 | 84 | 1011.9 |
| 20260506031013 | 8 | 355 | 1.6 | 14.5 | 0.00 | 0.00 | 0.00 | 83 | 1011.9 |
| 20260506030513 | 8 | 42 | 3.2 | 12.9 | 0.00 | 0.00 | 0.00 | 83 | 1012.0 |
| 20260506030013 | 8 | 33 | 1.6 | 16.1 | 0.00 | 0.00 | 0.00 | 83 | 1012.0 |
| 20260506025013 | 8 | 60 | 9.7 | 17.7 | 0.00 | 0.00 | 0.00 | 83 | 1012.0 |
| 20260506024513 | 8 | 23 | 14.5 | 14.5 | 0.00 | 0.00 | 0.00 | 83 | 1012.0 |
| 20260506023943 | 8 | 40 | 4.8 | 16.1 | 0.00 | 0.00 | 0.00 | 83 | 1012.0 |
| 20260506023513 | 8 | 20 | 8.0 | 19.3 | 0.00 | 0.00 | 0.00 | 83 | 1012.0 |
| 20260506023013 | 8 | 40 | 14.5 | 19.3 | 0.00 | 0.00 | 0.00 | 83 | 1012.0 |
| 20260506022514 | 8 | 51 | 3.2 | 19.3 | 0.00 | 0.00 | 0.00 | 83 | 1012.0 |
| 20260506022013 | 8 | 35 | 8.0 | 19.3 | 0.00 | 0.00 | 0.00 | 83 | 1012.0 |
| 20260506021513 | 8 | 37 | 17.7 | 19.3 | 0.00 | 0.00 | 0.00 | 83 | 1012.0 |
| 20260506021013 | 8 | 28 | 16.1 | 16.1 | 0.00 | 0.00 | 0.00 | 83 | 1012.0 |
| 20260506020013 | 8 | 15 | 12.9 | 14.5 | 0.00 | 0.00 | 0.00 | 83 | 1012.1 |
| 20260506015513 | 9 | 20 | 11.3 | 14.5 | 0.00 | 0.00 | 0.00 | 83 | 1012.2 |
| 20260506014513 | 9 | 26 | 4.8 | 20.9 | 0.00 | 0.00 | 0.00 | 83 | 1012.2 |
| 20260506014013 | 9 | 38 | 14.5 | 20.9 | 0.00 | 0.00 | 0.00 | 83 | 1012.1 |
| 20260506013514 | 9 | 44 | 11.3 | 16.1 | 0.00 | 0.00 | 0.00 | 83 | 1012.1 |
| 20260506012944 | 9 | 28 | 9.7 | 16.1 | 0.00 | 0.00 | 0.00 | 83 | 1012.2 |
| 20260506012513 | 9 | 30 | 1.6 | 17.7 | 0.00 | 0.00 | 0.00 | 82 | 1012.2 |
| 20260506012013 | 9 | 65 | 8.0 | 17.7 | 0.00 | 0.00 | 0.00 | 82 | 1012.2 |
| 20260506011513 | 9 | 13 | 6.4 | 16.1 | 0.00 | 0.00 | 0.00 | 82 | 1012.2 |
| 20260506011013 | 9 | 35 | 6.4 | 14.5 | 0.00 | 0.00 | 0.00 | 81 | 1012.1 |
| 20260506010513 | 9 | 56 | 4.8 | 14.5 | 0.00 | 0.00 | 0.00 | 81 | 1012.2 |
| 20260506010013 | 9 | 47 | 6.4 | 14.5 | 0.00 | 0.00 | 0.00 | 80 | 1012.2 |
| 20260506005513 | 9 | 32 | 4.8 | 14.5 | 0.00 | 0.00 | 0.00 | 80 | 1012.2 |
| 20260506005013 | 10 | 51 | 6.4 | 11.3 | 0.00 | 0.00 | 0.00 | 80 | 1012.2 |
| 20260506004443 | 10 | 41 | 1.6 | 9.7 | 0.00 | 0.00 | 0.00 | 79 | 1012.2 |
| 20260506004013 | 10 | 53 | 0.0 | 9.7 | 0.00 | 0.00 | 0.00 | 79 | 1012.2 |
| 20260506003513 | 10 | 31 | 3.2 | 9.7 | 0.00 | 0.00 | 0.00 | 79 | 1012.2 |
| 20260506003013 | 10 | 52 | 6.4 | 12.9 | 0.00 | 0.00 | 0.00 | 78 | 1012.2 |
| 20260506002513 | 10 | 67 | 6.4 | 14.5 | 0.00 | 0.00 | 0.00 | 78 | 1012.2 |
| 20260506002013 | 10 | 67 | 3.2 | 16.1 | 0.00 | 0.00 | 0.00 | 78 | 1012.2 |
| 20260506001515 | 10 | 47 | 4.8 | 16.1 | 0.00 | 0.00 | 0.00 | 77 | 1012.2 |
| 20260506000513 | 10 | 58 | 8.0 | 17.7 | 0.00 | 0.00 | 0.00 | 77 | 1012.2 |
| 20260506000013 | 10 | 51 | 6.4 | 17.7 | 0.00 | 0.00 | 0.00 | 77 | 1012.1 |
| 20260505235513 | 10 | 51 | 0.0 | 14.5 | 0.00 | 0.00 | 0.00 | 76 | 1012.1 |
| 20260505235013 | 10 | 21 | 4.8 | 14.5 | 0.00 | 0.00 | 0.00 | 76 | 1012.1 |
| 20260505234513 | 10 | 47 | 4.8 | 14.5 | 0.00 | 0.00 | 0.00 | 76 | 1012.2 |
| 20260505234013 | 10 | 54 | 1.6 | 14.5 | 0.00 | 0.00 | 0.00 | 76 | 1012.2 |
| 20260505232513 | 10 | 70 | 6.4 | 17.7 | 0.00 | 0.00 | 0.00 | 75 | 1012.2 |
| 20260505231513 | 11 | 5 | 8.0 | 20.9 | 0.00 | 0.00 | 0.00 | 75 | 1012.2 |
| 20260505230943 | 11 | 70 | 8.0 | 17.7 | 0.00 | 0.00 | 0.00 | 75 | 1012.2 |
| 20260505230513 | 11 | 65 | 12.9 | 16.1 | 0.00 | 0.00 | 0.00 | 75 | 1012.1 |
| 20260505230013 | 11 | 26 | 16.1 | 20.9 | 0.00 | 0.00 | 0.00 | 75 | 1012.0 |
| 20260505225013 | 11 | 30 | 12.9 | 17.7 | 0.00 | 0.00 | 0.00 | 75 | 1012.0 |
| 20260505224513 | 11 | 16 | 12.9 | 17.7 | 0.00 | 0.00 | 0.00 | 75 | 1012.0 |
| 20260505224013 | 11 | 49 | 17.7 | 17.7 | 0.00 | 0.00 | 0.00 | 75 | 1012.1 |
| 20260505223013 | 11 | 55 | 14.5 | 17.7 | 0.00 | 0.00 | 0.00 | 75 | 1012.1 |
| 20260505222513 | 11 | 63 | 6.4 | 14.5 | 0.00 | 0.00 | 0.00 | 75 | 1012.0 |
| 20260505222013 | 11 | 46 | 6.4 | 14.5 | 0.00 | 0.00 | 0.00 | 75 | 1012.0 |
| 20260505221513 | 11 | 24 | 8.0 | 19.3 | 0.00 | 0.00 | 0.00 | 75 | 1012.0 |
| 20260505221013 | 12 | 59 | 3.2 | 19.3 | 0.00 | 0.00 | 0.00 | 75 | 1012.0 |
| 20260505215513 | 12 | 39 | 4.8 | 17.7 | 0.00 | 0.00 | 0.00 | 74 | 1012.0 |
| 20260505215013 | 12 | 47 | 6.4 | 17.7 | 0.00 | 0.00 | 0.00 | 74 | 1011.9 |
| 20260505214513 | 12 | 17 | 3.2 | 17.7 | 0.00 | 0.00 | 0.00 | 73 | 1011.9 |
| 20260505214013 | 12 | 36 | 3.2 | 11.3 | 0.00 | 0.00 | 0.00 | 73 | 1012.0 |
| 20260505213513 | 12 | 46 | 3.2 | 9.7 | 0.00 | 0.00 | 0.00 | 72 | 1011.9 |
| 20260505212513 | 12 | 32 | 3.2 | 9.7 | 0.00 | 0.00 | 0.00 | 72 | 1011.8 |
| 20260505212013 | 12 | 40 | 6.4 | 9.7 | 0.00 | 0.00 | 0.00 | 72 | 1011.8 |
| 20260505211513 | 12 | 32 | 4.8 | 9.7 | 0.00 | 0.00 | 0.00 | 72 | 1011.8 |
| 20260505211013 | 12 | 34 | 6.4 | 11.3 | 0.00 | 0.00 | 0.00 | 71 | 1011.8 |
| 20260505210513 | 12 | 37 | 9.7 | 11.3 | 0.00 | 0.00 | 0.00 | 71 | 1011.8 |
| 20260505210013 | 12 | 38 | 8.0 | 12.9 | 0.00 | 0.00 | 0.00 | 71 | 1011.8 |
| 20260505205513 | 12 | 28 | 6.4 | 12.9 | 0.00 | 0.00 | 0.00 | 71 | 1011.8 |
| 20260505205013 | 12 | 44 | 6.4 | 14.5 | 0.00 | 0.00 | 0.00 | 70 | 1011.8 |
| 20260505204013 | 12 | 32 | 6.4 | 14.5 | 0.00 | 0.00 | 0.00 | 70 | 1011.7 |
| 20260505203513 | 12 | 32 | 3.2 | 12.9 | 0.00 | 0.00 | 0.00 | 70 | 1011.6 |
| 20260505203013 | 12 | 40 | 4.8 | 12.9 | 0.00 | 0.00 | 0.00 | 70 | 1011.6 |
| 20260505202513 | 12 | 24 | 3.2 | 9.7 | 0.00 | 0.00 | 0.00 | 70 | 1011.5 |
| 20260505202013 | 12 | 15 | 4.8 | 12.9 | 0.00 | 0.00 | 0.00 | 70 | 1011.5 |
| 20260505201513 | 12 | 36 | 3.2 | 12.9 | 0.00 | 0.00 | 0.00 | 70 | 1011.5 |
| 20260505201013 | 12 | 28 | 6.4 | 12.9 | 0.00 | 0.00 | 0.00 | 69 | 1011.5 |
| 20260505200013 | 12 | 17 | 8.0 | 12.9 | 0.00 | 0.00 | 0.00 | 69 | 1011.5 |
| 20260505195513 | 13 | 15 | 6.4 | 12.9 | 0.00 | 0.00 | 0.00 | 69 | 1011.5 |
| 20260505195013 | 13 | 27 | 4.8 | 12.9 | 0.00 | 0.00 | 0.00 | 69 | 1011.4 |
| 20260505194513 | 13 | 29 | 8.0 | 16.1 | 0.00 | 0.00 | 0.00 | 69 | 1011.4 |
| 20260505194013 | 13 | 13 | 6.4 | 16.1 | 0.00 | 0.00 | 0.00 | 69 | 1011.4 |
| 20260505193013 | 13 | 11 | 8.0 | 14.5 | 0.00 | 0.00 | 0.00 | 68 | 1011.2 |
| 20260505192013 | 13 | 38 | 4.8 | 14.5 | 0.00 | 0.00 | 0.00 | 68 | 1011.1 |
| 20260505191513 | 13 | 50 | 6.4 | 16.1 | 0.00 | 0.00 | 0.00 | 68 | 1011.1 |
| 20260505191013 | 13 | 39 | 11.3 | 16.1 | 0.00 | 0.00 | 0.00 | 68 | 1011.1 |
| 20260505190513 | 13 | 43 | 14.5 | 16.1 | 0.00 | 0.00 | 0.00 | 68 | 1011.1 |
| 20260505190013 | 13 | 5 | 9.7 | 17.7 | 0.00 | 0.00 | 0.00 | 67 | 1011.1 |
| 20260505185513 | 13 | 16 | 4.8 | 19.3 | 0.00 | 0.00 | 0.00 | 67 | 1011.0 |
| 20260505185013 | 13 | 34 | 8.0 | 19.3 | 0.00 | 0.00 | 0.00 | 67 | 1011.0 |
| 20260505184513 | 13 | 12 | 6.4 | 17.7 | 0.00 | 0.00 | 0.00 | 67 | 1011.0 |
| 20260505184013 | 13 | 5 | 12.9 | 16.1 | 0.00 | 0.00 | 0.00 | 68 | 1010.9 |
| 20260505183513 | 13 | 9 | 11.3 | 12.9 | 0.00 | 0.00 | 0.00 | 68 | 1010.9 |
| 20260505182013 | 14 | 15 | 4.8 | 17.7 | 0.00 | 0.00 | 0.00 | 67 | 1010.9 |
| 20260505181513 | 14 | 42 | 4.8 | 20.9 | 0.00 | 0.00 | 0.00 | 67 | 1010.8 |
| 20260505180513 | 14 | 19 | 4.8 | 14.5 | 0.00 | 0.00 | 0.00 | 67 | 1010.9 |
| 20260505175513 | 14 | 5 | 8.0 | 19.3 | 0.00 | 0.00 | 0.00 | 67 | 1010.7 |
| 20260505175013 | 14 | 16 | 12.9 | 16.1 | 0.00 | 0.00 | 0.00 | 67 | 1010.7 |
| 20260505174513 | 14 | 31 | 9.7 | 17.7 | 0.00 | 0.00 | 0.00 | 67 | 1010.8 |
| 20260505174012 | 14 | 14 | 4.8 | 17.7 | 0.00 | 0.00 | 0.00 | 66 | 1010.8 |
| 20260505173013 | 14 | 13 | 3.2 | 19.3 | 0.00 | 0.00 | 0.00 | 67 | 1010.8 |
| 20260505172013 | 14 | 15 | 17.7 | 25.7 | 0.00 | 0.00 | 0.00 | 67 | 1010.9 |
| 20260505171513 | 15 | 355 | 19.3 | 25.7 | 0.00 | 0.00 | 0.00 | 67 | 1011.0 |
| 20260505170513 | 15 | 40 | 11.3 | 17.7 | 0.00 | 0.00 | 0.00 | 66 | 1011.0 |
| 20260505170013 | 15 | 31 | 4.8 | 17.7 | 0.00 | 0.00 | 0.00 | 65 | 1011.0 |
| 20260505165512 | 15 | 303 | 14.5 | 17.7 | 0.00 | 0.00 | 0.00 | 66 | 1010.9 |
| 20260505164513 | 15 | 33 | 12.9 | 17.7 | 0.00 | 0.00 | 0.00 | 66 | 1010.9 |
| 20260505164013 | 15 | 19 | 6.4 | 19.3 | 0.00 | 0.00 | 0.00 | 65 | 1010.9 |
| 20260505163513 | 15 | 12 | 3.2 | 19.3 | 0.00 | 0.00 | 0.00 | 66 | 1010.8 |
| 20260505163013 | 15 | 50 | 4.8 | 19.3 | 0.00 | 0.00 | 0.00 | 66 | 1010.8 |
| 20260505162513 | 15 | 41 | 6.4 | 17.7 | 0.00 | 0.00 | 0.00 | 66 | 1010.8 |
| 20260505160513 | 15 | 38 | 4.8 | 17.7 | 0.00 | 0.00 | 0.00 | 64 | 1010.9 |
| 20260505152513 | 15 | 42 | 3.2 | 17.7 | 0.00 | 0.00 | 0.00 | 66 | 1011.0 |
| 20260505152013 | 15 | 51 | 3.2 | 12.9 | 0.00 | 0.00 | 0.00 | 65 | 1011.0 |
| 20260505151512 | 15 | 11 | 4.8 | 12.9 | 0.00 | 0.00 | 0.00 | 64 | 1011.0 |
| 20260505151012 | 15 | 63 | 9.7 | 16.1 | 0.00 | 0.00 | 0.00 | 66 | 1011.1 |
| 20260505150512 | 15 | 32 | 6.4 | 17.7 | 0.00 | 0.00 | 0.00 | 66 | 1011.1 |
| 20260505140513 | 15 | 5 | 14.5 | 19.3 | 0.00 | 0.00 | 0.00 | 66 | 1011.4 |
| 20260505125012 | 15 | 46 | 11.3 | 17.7 | 0.00 | 0.00 | 0.00 | 69 | 1011.7 |
| 20260505124012 | 15 | 35 | 6.4 | 17.7 | 0.00 | 0.00 | 0.00 | 69 | 1011.6 |
| 20260505123512 | 15 | 53 | 16.1 | 17.7 | 0.00 | 0.00 | 0.00 | 69 | 1011.7 |
| 20260505123012 | 15 | 22 | 6.4 | 16.1 | 0.00 | 0.00 | 0.00 | 71 | 1011.6 |
| 20260505121513 | 14 | 41 | 9.7 | 14.5 | 0.00 | 0.00 | 0.00 | 71 | 1011.7 |
| 20260505121013 | 14 | 55 | 4.8 | 14.5 | 0.00 | 0.00 | 0.00 | 69 | 1011.7 |
| 20260505120513 | 14 | 360 | 12.9 | 14.5 | 0.00 | 0.00 | 0.00 | 69 | 1011.7 |
| 20260505120012 | 15 | 82 | 3.2 | 22.5 | 0.00 | 0.00 | 0.00 | 69 | 1011.7 |
| 20260505115512 | 15 | 355 | 6.4 | 25.7 | 0.00 | 0.00 | 0.00 | 68 | 1011.7 |
| 20260505115012 | 15 | 66 | 14.5 | 25.7 | 0.00 | 0.00 | 0.00 | 68 | 1011.7 |
| 20260505114512 | 15 | 30 | 12.9 | 22.5 | 0.00 | 0.00 | 0.00 | 67 | 1011.7 |
| 20260505114012 | 15 | 36 | 0.0 | 20.9 | 0.00 | 0.00 | 0.00 | 69 | 1011.7 |
| 20260505113512 | 15 | 28 | 17.7 | 17.7 | 0.00 | 0.00 | 0.00 | 69 | 1011.8 |
| 20260505113012 | 15 | 360 | 4.8 | 19.3 | 0.00 | 0.00 | 0.00 | 69 | 1011.8 |
| 20260505112514 | 14 | 36 | 11.3 | 20.9 | 0.00 | 0.00 | 0.00 | 70 | 1011.9 |
| 20260505112012 | 14 | 11 | 6.4 | 20.9 | 0.00 | 0.00 | 0.00 | 70 | 1011.8 |
| 20260505111512 | 15 | 25 | 12.9 | 20.9 | 0.00 | 0.00 | 0.00 | 71 | 1011.9 |
| 20260505111012 | 14 | 5 | 9.7 | 27.4 | 0.00 | 0.00 | 0.00 | 73 | 1012.0 |
| 20260505110513 | 13 | 75 | 12.9 | 27.4 | 0.00 | 0.00 | 0.00 | 73 | 1012.0 |
| 20260505102012 | 13 | 48 | 9.7 | 17.7 | 0.00 | 0.00 | 0.00 | 76 | 1012.4 |
| 20260505101512 | 13 | 61 | 8.0 | 14.5 | 0.00 | 0.00 | 0.00 | 77 | 1012.3 |
| 20260505101013 | 13 | 294 | 6.4 | 16.1 | 0.00 | 0.00 | 0.00 | 77 | 1012.3 |
| 20260505100513 | 12 | 25 | 6.4 | 16.1 | 0.00 | 0.00 | 0.00 | 77 | 1012.4 |
| 20260505100012 | 12 | 350 | 8.0 | 16.1 | 0.00 | 0.00 | 0.00 | 78 | 1012.3 |
| 20260505095012 | 13 | 58 | 8.0 | 16.1 | 0.00 | 0.00 | 0.00 | 76 | 1012.4 |
| 20260505094512 | 13 | 10 | 3.2 | 17.7 | 0.00 | 0.00 | 0.00 | 76 | 1012.5 |
| 20260505094013 | 13 | 26 | 6.4 | 17.7 | 0.00 | 0.00 | 0.00 | 75 | 1012.5 |
| 20260505093513 | 13 | 32 | 3.2 | 17.7 | 0.00 | 0.00 | 0.00 | 77 | 1012.5 |
| 20260505093012 | 12 | 22 | 9.7 | 17.7 | 0.00 | 0.00 | 0.00 | 79 | 1012.4 |
| 20260505092512 | 12 | 5 | 12.9 | 17.7 | 0.00 | 0.00 | 0.00 | 78 | 1012.4 |
| 20260505092012 | 12 | 13 | 8.0 | 17.7 | 0.00 | 0.00 | 0.00 | 79 | 1012.4 |
| 20260505091512 | 12 | 38 | 6.4 | 20.9 | 0.00 | 0.00 | 0.00 | 79 | 1012.4 |
| 20260505091012 | 12 | 42 | 4.8 | 20.9 | 0.00 | 0.00 | 0.00 | 79 | 1012.5 |
| 20260505090512 | 12 | 43 | 6.4 | 17.7 | 0.00 | 0.00 | 0.00 | 80 | 1012.5 |
| 20260505090012 | 11 | 27 | 16.1 | 19.3 | 0.00 | 0.00 | 0.00 | 81 | 1012.5 |
| 20260505085012 | 11 | 336 | 12.9 | 17.7 | 0.00 | 0.00 | 0.00 | 82 | 1012.5 |
| 20260505084513 | 11 | 332 | 6.4 | 17.7 | 0.00 | 0.00 | 0.00 | 83 | 1012.5 |
| 20260505083012 | 11 | 25 | 12.9 | 14.5 | 0.00 | 0.00 | 0.00 | 85 | 1012.6 |
| 20260505082512 | 11 | 5 | 9.7 | 17.7 | 0.00 | 0.00 | 0.00 | 85 | 1012.7 |
| 20260505082012 | 11 | 9 | 4.8 | 19.3 | 0.00 | 0.00 | 0.00 | 84 | 1012.8 |
| 20260505081012 | 11 | 20 | 3.2 | 14.5 | 0.00 | 0.00 | 0.00 | 85 | 1012.7 |
| 20260505080512 | 11 | 19 | 11.3 | 14.5 | 0.00 | 0.00 | 0.00 | 86 | 1012.7 |
| 20260505080012 | 11 | 14 | 11.3 | 14.5 | 0.00 | 0.00 | 0.00 | 87 | 1012.6 |
| 20260505075512 | 11 | 30 | 6.4 | 17.7 | 0.00 | 0.00 | 0.00 | 87 | 1012.6 |
| 20260505075012 | 11 | 32 | 8.0 | 17.7 | 0.00 | 0.00 | 0.00 | 87 | 1012.6 |
| 20260505074512 | 11 | 18 | 12.9 | 16.1 | 0.00 | 0.00 | 0.00 | 88 | 1012.6 |
| 20260505073512 | 10 | 11 | 11.3 | 20.9 | 0.00 | 0.00 | 0.00 | 89 | 1012.7 |
| 20260505073012 | 10 | 22 | 9.7 | 17.7 | 0.00 | 0.00 | 0.00 | 89 | 1012.7 |
| 20260505072512 | 10 | 43 | 8.0 | 16.1 | 0.00 | 0.00 | 0.00 | 90 | 1012.7 |
| 20260505071512 | 10 | 54 | 3.2 | 17.7 | 0.00 | 0.00 | 0.00 | 91 | 1012.7 |
| 20260505071012 | 10 | 19 | 3.2 | 17.7 | 0.00 | 0.00 | 0.00 | 92 | 1012.6 |
| 20260505070512 | 10 | 34 | 12.9 | 20.9 | 0.00 | 0.00 | 0.00 | 92 | 1012.6 |
| 20260505065512 | 10 | 45 | 11.3 | 20.9 | 0.00 | 0.00 | 0.00 | 92 | 1012.7 |
| 20260505065014 | 9 | 13 | 11.3 | 20.9 | 0.00 | 0.00 | 0.00 | 93 | 1012.7 |
| 20260505064512 | 9 | 29 | 6.4 | 20.9 | 0.00 | 0.00 | 0.00 | 93 | 1012.6 |
| 20260505064012 | 9 | 10 | 12.9 | 17.7 | 0.00 | 0.00 | 0.00 | 93 | 1012.6 |
| 20260505063512 | 9 | 323 | 12.9 | 16.1 | 0.00 | 0.00 | 0.00 | 93 | 1012.7 |
| 20260505063012 | 8 | 5 | 9.7 | 17.7 | 0.00 | 0.00 | 0.00 | 93 | 1012.5 |
| 20260505062512 | 8 | 5 | 3.2 | 17.7 | 0.00 | 0.00 | 0.00 | 92 | 1012.5 |
| 20260505061512 | 8 | 15 | 6.4 | 14.5 | 0.00 | 0.00 | 0.00 | 92 | 1012.5 |
| 20260505060512 | 8 | 12 | 4.8 | 11.3 | 0.00 | 0.00 | 0.00 | 92 | 1012.5 |
| 20260505055512 | 8 | 38 | 1.6 | 9.7 | 0.00 | 0.00 | 0.00 | 91 | 1012.6 |
| 20260505054512 | 7 | 291 | 1.6 | 8.0 | 0.00 | 0.00 | 0.00 | 91 | 1012.6 |
| 20260505054012 | 7 | 276 | 3.2 | 8.0 | 0.00 | 0.00 | 0.00 | 91 | 1012.7 |
| 20260505053512 | 7 | 335 | 3.2 | 6.4 | 0.00 | 0.00 | 0.00 | 91 | 1012.7 |
| 20260505053012 | 7 | 321 | 3.2 | 4.8 | 0.00 | 0.00 | 0.00 | 91 | 1012.7 |
| 20260505052512 | 7 | 334 | 0.0 | 4.8 | 0.00 | 0.00 | 0.00 | 90 | 1012.7 |
| 20260505052012 | 7 | 321 | 0.0 | 4.8 | 0.00 | 0.00 | 0.00 | 90 | 1012.7 |
| 20260505051512 | 7 | 20 | 0.0 | 1.6 | 0.00 | 0.00 | 0.00 | 90 | 1012.6 |
| 20260505051012 | 7 | 22 | 0.0 | 0.0 | 0.00 | 0.00 | 0.00 | 90 | 1012.7 |
| 20260505050512 | 7 | 22 | 0.0 | 0.0 | 0.00 | 0.00 | 0.00 | 90 | 1012.7 |
| 20260505041512 | 8 | 18 | 6.4 | 12.9 | 0.00 | 0.00 | 0.00 | 90 | 1012.9 |
| 20260505041011 | 8 | 9 | 4.8 | 12.9 | 0.00 | 0.00 | 0.00 | 90 | 1013.0 |
| 20260505040512 | 8 | 10 | 1.6 | 8.0 | 0.00 | 0.00 | 0.00 | 89 | 1013.0 |
| 20260505040012 | 8 | 5 | 4.8 | 8.0 | 0.00 | 0.00 | 0.00 | 89 | 1012.9 |
| 20260505035512 | 8 | 5 | 4.8 | 8.0 | 0.00 | 0.00 | 0.00 | 90 | 1012.9 |
| 20260505035012 | 8 | 5 | 3.2 | 8.0 | 0.00 | 0.00 | 0.00 | 89 | 1013.0 |
| 20260505034512 | 8 | 28 | 1.6 | 4.8 | 0.00 | 0.00 | 0.00 | 89 | 1013.0 |
| 20260505034012 | 8 | 28 | 0.0 | 4.8 | 0.00 | 0.00 | 0.00 | 89 | 1013.0 |
| 20260505033511 | 8 | 29 | 0.0 | 6.4 | 0.00 | 0.00 | 0.00 | 89 | 1012.9 |
| 20260505033012 | 8 | 29 | 0.0 | 8.0 | 0.00 | 0.00 | 0.00 | 89 | 1012.9 |
| 20260505032512 | 8 | 29 | 0.0 | 8.0 | 0.00 | 0.00 | 0.00 | 89 | 1012.9 |